Starlink 30210

operational
NORAD ID: 57292 Int'l Des: 2023-096 Owner: SPXS Country: US Constellation: starlink
LEOCIRCULAR

About Starlink 30210

Description loading...

Live Position

Loading 3D Globe...

Upcoming Passes

Altitude History

Altitude vs Time

uPlot chart will show altitude changes over time

Two-Line Element Set

1 57292U 23096C 25259.47877577 .00063066 00000-0 28750-2 0 9995
2 57292 42.9949 76.0195 0020933 273.4010 86.4444 15.19622074121456
Epoch: Sep 16, 2025 • Age: 46 hours

Current Status

Altitude 517.3 km
Velocity 7.60 km/s
Sub-Earth Point 23.98°N, 71.36°E
Launch Date Jul 10, 2023
Age 2.1 years
Type internet

Technical Details

Classification Payload
Mass 730.00 kg
Dry Mass 700.00 kg
Total Mass 730.00 kg
Length 0.30 m
Diameter 4.10 m
Span 29.00 m
Shape Box + pan
Manufacturer SPXS
Bus Type Starlink V2M
Phase Status In Orbit
Owner/State SPXS/US

Large Constellations

Loading constellations...